星链-32671 (STARLINK-32671)

导读 | 豆包AI

STARLINK-32671是美国SpaceX公司星链星座的成员卫星,于2024年12月4日发射入轨。作为星链低轨宽带通信星座的组成部分,它延续了星链卫星的设计特点,采用平板构型搭载氪工质霍尔推进器,支持自主避撞控制,服役寿命末期可主动离轨再入大气层销毁。它承担着为全球提供高速宽带互联网接入服务的任务,助力星链星座全球网络覆盖的构建,推进星链项目规模部署进程。

基本信息
目录编号:
62209
目录名称:
STARLINK-32671
国际标识:
2024-229T
轨道中心:
EARTH
卫星名称:
星链-32671
卫星全名:
星链-32671 (STARLINK-32671)
卫星状态:
在轨 (已飞行513 天)
发射日期:
2024-12-04 UTC
国别 :
美国 (US)
星等 :
--
轨道信息
数据来源 国际轨道数据
星历时间: 2026-04-30T23:42:09+0800
10小时前
查看轨道信息
半长轴: 6861.012km
偏心率: 0.0001297
轨道倾角: 43.002°
近地点辐角 261.438°
升交点赤经 337.674°
平近点角 98.633°
近地点: 481.985km
远地点: 483.765km
周期: 94.263分钟
每日圈数: 15.276384
详细信息
固有亮度:
5
最大亮度:
2.5
卫星平台:
Starlink V1.0
覆盖范围:
全球
运营商:
太空探索技术公司
运营商所在国:
美国
制造商(研发单位):
太空探索技术公司
制造商所在国:
美国
使用方式:
暂无
卫星简介
Starlink 计划是 SpaceX 推出的全球卫星互联网项目,通过发射低轨道卫星,为全球尤其是偏远地区提供高速、低延迟的互联网服务。自 2019 年起,Starlink 已部署数千颗卫星,旨在缩小全球数字鸿沟,推动互联网普及。该项目还为军事、航空等行业提供通信支持,带来广泛经济效益。
2D轨道图
3D轨道图
轨道高度分析图
轨道倾角分析图
轨道综合分析图
查看轨道综合分析图